Weather History for Houston / Dunn Helistop, TX

Change the Weather History Date:

Tuesday, July 30, 2013

  Actual Average (KHOU) Record (KHOU)
Temperature  
Mean Temperature 86 °F 85 °F  
Max Temperature 96 °F 95 °F 102 °F (1914)
Min Temperature 77 °F 75 °F 68 °F (1994)
Cooling Degree Days 22 20  
Month to date cooling degree days 582  
Year to date cooling degree days 1754  
Since 1 June cooling degree days 1102  
Growing Degree Days 36 (Base 50)    
Moisture  
Dew Point 72 °F    
Average Humidity 68    
Maximum Humidity 89    
Minimum Humidity 36    
Precipitation  
Precipitation 0.00 in 0.09 in 2.11 in (1954)
Month to date precipitation 3.70  
Year to date precipitation 28.02  
Sea Level Pressure  
Sea Level Pressure 30.05 in    
Wind  
Wind Speed 8 mph (SSW)    
Max Wind Speed 18 mph    
Max Gust Speed 25 mph    
Visibility 6 miles    
Events      
T = Trace of Precipitation, MM = Missing Value Source: NWS Daily Summary

Daily Weather History Graph

Daily Weather History Graph

Search for Another Location

Airport:

Trip Planner

Search our weather history database for the weather conditions in past years. The results will help you decide how hot, cold, wet, or windy it might be!

Date:

Astronomy

Jul. 30, 2013 Rise Set
Actual Time 6:40 AM CDT 8:15 PM CDT
Civil Twilight 6:14 AM CDT 8:41 PM CDT
Nautical Twilight 5:43 AM CDT 9:12 PM CDT
Astronomical Twilight 5:10 AM CDT 9:44 PM CDT
Moon 12:55 AM CDT (7/30) 2:37 PM CDT (7/30)
Length of Visible Light 14h 27m
Length of Day
13h 35m
Last Quarter, 41% of the Moon is Illuminated
Jul 30
Last Quarter
Aug 6
New
Aug 14
First Quarter
Aug 20
Full
Aug 28
Last Quarter

Hourly Weather History & Observations

Time (CDT) Temp. Heat Index Dew Point Humidity Pressure Visibility Wind Dir Wind Speed Gust Speed Precip Events Conditions
12:15 AM 80.6 °F 85.4 °F 73.4 °F 79% 30.06 in 6.0 mi South 10.4 mph - N/A   Clear
12:35 AM 80.6 °F 85.4 °F 73.4 °F 79% 30.07 in 6.0 mi SSE 5.8 mph - N/A   Clear
12:55 AM 78.8 °F - 73.4 °F 83% 30.06 in 6.0 mi South 8.1 mph - N/A   Clear
1:15 AM 78.8 °F - 73.4 °F 83% 30.05 in 6.0 mi South 12.7 mph - N/A   Clear
1:35 AM 78.8 °F - 73.4 °F 83% 30.04 in 7.0 mi South 10.4 mph 17.3 mph N/A   Clear
1:55 AM 78.8 °F - 73.4 °F 83% 30.04 in 6.0 mi South 9.2 mph - N/A   Clear
2:15 AM 78.8 °F - 73.4 °F 83% 30.04 in 7.0 mi South 9.2 mph - N/A   Clear
2:35 AM 78.8 °F - 73.4 °F 83% 30.04 in 6.0 mi South 8.1 mph - N/A   Clear
2:55 AM 78.8 °F - 73.4 °F 83% 30.04 in 6.0 mi SSW 6.9 mph - N/A   Clear
3:15 AM 78.8 °F - 73.4 °F 83% 30.03 in 7.0 mi South 6.9 mph - N/A   Clear
3:35 AM 78.8 °F - 73.4 °F 83% 30.03 in 5.0 mi South 8.1 mph - N/A   Clear
3:55 AM 78.8 °F - 73.4 °F 83% 30.04 in 6.0 mi South 6.9 mph - N/A   Clear
4:15 AM 77.0 °F - 73.4 °F 89% 30.04 in 6.0 mi SSW 5.8 mph - N/A   Clear
4:35 AM 77.0 °F - 73.4 °F 89% 30.04 in 5.0 mi SSW 4.6 mph - N/A   Clear
4:55 AM 77.0 °F - 73.4 °F 89% 30.05 in 5.0 mi South 4.6 mph - N/A   Clear
5:15 AM 77.0 °F - 73.4 °F 89% 30.05 in 5.0 mi South 6.9 mph - N/A   Clear
5:35 AM 77.0 °F - 73.4 °F 89% 30.06 in 5.0 mi Calm Calm - N/A   Clear
5:55 AM 77.0 °F - 73.4 °F 89% 30.06 in 5.0 mi South 4.6 mph - N/A   Clear
6:15 AM 77.0 °F - 73.4 °F 89% 30.06 in 5.0 mi SSW 4.6 mph - N/A   Clear
6:35 AM 77.0 °F - 73.4 °F 89% 30.07 in 5.0 mi South 4.6 mph - N/A   Clear
6:55 AM 77.0 °F - 73.4 °F 89% 30.08 in 4.0 mi Calm Calm - N/A   Clear
7:15 AM 77.0 °F - 73.4 °F 89% 30.08 in 5.0 mi SW 5.8 mph - N/A   Scattered Clouds
7:35 AM 77.0 °F - 73.4 °F 89% 30.08 in 4.0 mi SW 6.9 mph - N/A   Scattered Clouds
7:55 AM 78.8 °F - 73.4 °F 83% 30.08 in 4.0 mi SW 6.9 mph - N/A   Clear
8:15 AM 80.6 °F 85.4 °F 73.4 °F 79% 30.09 in 5.0 mi SW 8.1 mph - N/A   Clear
8:35 AM 80.6 °F 86.2 °F 75.2 °F 84% 30.09 in 5.0 mi WSW 4.6 mph - N/A   Scattered Clouds
8:55 AM 82.4 °F 89.5 °F 75.2 °F 79% 30.09 in 5.0 mi SW 5.8 mph 16.1 mph N/A   Clear
9:15 AM 82.4 °F 88.2 °F 73.4 °F 74% 30.09 in 5.0 mi WSW 9.2 mph 16.1 mph N/A   Clear
9:35 AM 84.2 °F 90.9 °F 73.4 °F 70% 30.09 in 4.0 mi SW 10.4 mph 17.3 mph N/A   Scattered Clouds
9:55 AM 84.2 °F 90.9 °F 73.4 °F 70% 30.09 in 5.0 mi WSW 11.5 mph 18.4 mph N/A   Scattered Clouds
10:15 AM 86.0 °F 93.4 °F 73.4 °F 66% 30.10 in 5.0 mi West 4.6 mph - N/A   Mostly Cloudy
10:35 AM 86.0 °F 91.8 °F 71.6 °F 62% 30.10 in 5.0 mi SW 10.4 mph 16.1 mph N/A   Scattered Clouds
10:55 AM 86.0 °F 91.8 °F 71.6 °F 62% 30.10 in 5.0 mi SW 6.9 mph - N/A   Clear
11:15 AM 89.6 °F 96.2 °F 71.6 °F 55% 30.10 in 5.0 mi WSW 5.8 mph - N/A   Clear
11:55 AM 91.4 °F 98.4 °F 71.6 °F 52% 30.10 in 6.0 mi SSW 4.6 mph - N/A   Partly Cloudy
12:15 PM 93.2 °F 100.5 °F 71.6 °F 49% 30.09 in 5.0 mi WSW 8.1 mph - N/A   Partly Cloudy
12:35 PM 95.0 °F 103.2 °F 71.6 °F 47% 30.08 in 5.0 mi South 4.6 mph - N/A   Partly Cloudy
1:15 PM 95.0 °F 99.5 °F 68.0 °F 41% 30.07 in 5.0 mi SW 4.6 mph - N/A   Clear
1:35 PM 95.0 °F 99.5 °F 68.0 °F 41% 30.06 in 6.0 mi South 13.8 mph 17.3 mph N/A   Partly Cloudy
1:55 PM 93.2 °F 97.7 °F 68.0 °F 44% 30.05 in 6.0 mi South 9.2 mph 16.1 mph N/A   Clear
2:15 PM 95.0 °F 98.5 °F 66.2 °F 39% 30.05 in 6.0 mi WSW 6.9 mph - N/A   Clear
2:35 PM 95.0 °F 98.5 °F 66.2 °F 39% 30.04 in 6.0 mi South 4.6 mph - N/A   Clear
2:55 PM 95.0 °F 98.5 °F 66.2 °F 39% 30.03 in 6.0 mi SW 6.9 mph 18.4 mph N/A   Clear
3:15 PM 96.8 °F 100.7 °F 66.2 °F 37% 30.03 in 5.0 mi SSW 9.2 mph 16.1 mph N/A   Clear
3:35 PM 96.8 °F 100.7 °F 66.2 °F 37% 30.02 in 7.0 mi South 13.8 mph 18.4 mph N/A   Clear
3:55 PM 95.0 °F 98.5 °F 66.2 °F 39% 30.02 in 5.0 mi SSE 8.1 mph 17.3 mph N/A   Clear
4:15 PM 95.0 °F 97.0 °F 64.4 °F 36% 30.01 in 5.0 mi South 17.3 mph 20.7 mph N/A   Clear
4:35 PM 95.0 °F 98.5 °F 66.2 °F 39% 30.01 in 5.0 mi South 10.4 mph 16.1 mph N/A   Clear
4:55 PM 95.0 °F 99.5 °F 68.0 °F 41% 30.01 in 6.0 mi South 13.8 mph 19.6 mph N/A   Clear
5:15 PM 93.2 °F 97.7 °F 68.0 °F 44% 30.01 in 6.0 mi SSE 11.5 mph 24.2 mph N/A   Clear
5:35 PM 91.4 °F 96.8 °F 69.8 °F 49% 30.01 in 6.0 mi SE 13.8 mph 25.3 mph N/A   Clear
5:55 PM 91.4 °F 96.8 °F 69.8 °F 49% 30.00 in 6.0 mi South 12.7 mph 24.2 mph N/A   Clear
6:15 PM 91.4 °F 96.8 °F 69.8 °F 49% 30.00 in 5.0 mi South 18.4 mph - N/A   Clear
6:35 PM 89.6 °F 96.2 °F 71.6 °F 55% 30.00 in 6.0 mi South 17.3 mph 20.7 mph N/A   Clear
6:55 PM 87.8 °F 93.8 °F 71.6 °F 58% 30.00 in 7.0 mi South 17.3 mph - N/A   Clear
7:15 PM 86.0 °F 91.8 °F 71.6 °F 62% 30.00 in 6.0 mi South 12.7 mph 21.9 mph N/A   Clear
7:35 PM 86.0 °F 91.8 °F 71.6 °F 62% 30.00 in 5.0 mi South 15.0 mph 21.9 mph N/A   Clear
7:55 PM 86.0 °F 93.4 °F 73.4 °F 66% 30.01 in 6.0 mi South 12.7 mph 17.3 mph N/A   Clear
8:15 PM 84.2 °F 90.9 °F 73.4 °F 70% 30.01 in 5.0 mi South 12.7 mph 20.7 mph N/A   Clear
8:35 PM 84.2 °F 90.9 °F 73.4 °F 70% 30.02 in 7.0 mi South 11.5 mph 18.4 mph N/A   Clear
8:55 PM 82.4 °F 88.2 °F 73.4 °F 74% 30.02 in 7.0 mi South 11.5 mph 17.3 mph N/A   Clear
9:15 PM 82.4 °F 88.2 °F 73.4 °F 74% 30.02 in 8.0 mi South 13.8 mph 18.4 mph N/A   Clear
9:35 PM 82.4 °F 88.2 °F 73.4 °F 74% 30.03 in 7.0 mi South 10.4 mph 19.6 mph N/A   Clear
9:55 PM 80.6 °F 85.4 °F 73.4 °F 79% 30.04 in 7.0 mi South 10.4 mph 17.3 mph N/A   Clear
10:15 PM 80.6 °F 85.4 °F 73.4 °F 79% 30.04 in 7.0 mi South 10.4 mph - N/A   Clear
10:35 PM 80.6 °F 85.4 °F 73.4 °F 79% 30.05 in 7.0 mi South 5.8 mph - N/A   Clear
10:55 PM 80.6 °F 85.4 °F 73.4 °F 79% 30.05 in 7.0 mi SSW 4.6 mph - N/A   Clear
11:15 PM 80.6 °F 85.4 °F 73.4 °F 79% 30.05 in 6.0 mi South 4.6 mph - N/A   Clear
11:35 PM 80.6 °F 85.4 °F 73.4 °F 79% 30.06 in 7.0 mi South 8.1 mph - N/A   Clear
11:55 PM 80.6 °F 85.4 °F 73.4 °F 79% 30.06 in 6.0 mi SSW 6.9 mph - N/A   Clear